Tracking 28794 objects as of 19-Apr-2024
HD Live streaming from Space Station
objects crossing your sky now

COSMOS 2251 DEB

Track COSMOS 2251 DEB now!
10-day predictions


NORAD ID: 35033
Int'l Code: 1993-036AGW
Perigee: 738.2 km
Apogee: 759.8 km
Inclination: 74.0 °
Period: 99.7 minutes
Semi major axis: 7120 km
RCS: 0.0077 m2 (small)
Launch date: June 16, 1993
Source: Commonwealth of Independent States (former USSR) (CIS)
Launch site: PLESETSK MISSILE AND SPACE COMPLEX (PKMTR)

Note: This is SATELLITE DEBRIS
Your satellite tracking list
Your tracking list is empty




NASA's NSSDC Master Catalog

Two Line Element Set (TLE):
1 35033U 93036AGW 24108.01144193  .00007612  00000-0  21815-2 0  9998
2 35033  74.0298 229.7147 0015173 119.7354 240.5315 14.45048467787921
Source of the keplerian elements: AFSPC